Theta_e
298 297 297 297 296 296 295 296 295 296 296 296 296 296 296 297 297 298 299 301 303 304 303 303 305 311 319 326 328 327 326 329 330 332 332 331 333 331 327 322 325 326 324
296 296 295 295 294 294 294 293 293 293 294 294 294 294 294 295 295 296 297 299 301 303 303 302 303 304 313 319 325 328 329 329 330 333 334 332 333 329 324 327 326 326 323
295 294 294 293 293 292 292 291 291 291 292 292 293 293 294 294 295 296 295 296 299 301 302 302 302 303 304 315 320 325 328 332 330 330 334 336 330 328 326 329 327 323 321
294 293 292 291 290 290 289 290 291 291 291 292 292 293 293 294 294 295 295 295 297 299 300 301 302 303 303 308 317 321 325 328 332 330 329 327 327 328 326 327 328 323 321
293 292 290 290 289 289 289 290 290 290 290 291 291 292 293 293 293 294 294 295 298 300 304 308 304 304 305 303 310 316 320 326 326 327 326 326 327 329 329 326 328 325 321
292 291 290 289 288 288 289 289 289 289 290 290 291 291 292 292 293 294 296 299 303 305 307 309 310 310 307 307 310 312 317 323 321 321 324 321 324 326 325 326 327 326 321
291 290 289 289 288 287 287 288 288 289 289 290 290 291 291 292 294 294 299 301 301 304 305 305 309 310 310 311 313 316 318 319 322 322 322 321 323 323 322 322 326 326 321
290 289 288 287 287 286 287 287 288 288 289 290 289 290 292 292 296 296 293 295 298 301 300 303 304 308 310 312 315 316 318 319 319 320 318 319 321 320 325 325 326 324 322
289 289 288 287 286 286 286 287 287 287 288 288 289 289 290 291 290 291 292 293 295 295 299 300 301 303 306 310 312 315 316 318 318 320 318 319 320 321 330 326 326 324 322
289 288 286 286 286 285 285 286 286 286 287 287 288 288 288 288 289 290 291 292 293 296 297 298 297 302 301 306 311 313 314 317 317 319 317 318 319 320 328 326 324 325 321
287 286 286 285 285 285 285 285 285 285 286 286 286 287 287 288 288 288 290 292 291 293 293 295 297 299 300 306 309 313 314 315 318 318 317 318 319 316 319 329 325 325 321
286 286 285 285 284 284 284 284 284 285 285 286 286 286 286 286 287 288 288 289 290 291 293 294 295 298 300 303 308 312 315 315 318 318 318 319 318 317 323 322 325 325 319
285 285 284 284 284 283 283 283 284 284 284 285 285 285 285 286 286 286 287 288 289 290 292 294 296 298 299 301 305 310 313 314 316 318 319 320 320 318 320 324 326 324 320
285 284 284 283 283 283 283 283 283 283 284 284 285 284 285 285 286 286 286 287 288 290 292 293 296 298 299 300 304 309 310 314 312 312 320 321 320 321 324 328 326 321 320
284 284 284 283 283 282 282 283 283 283 283 283 284 284 284 285 285 286 286 287 288 289 290 292 295 297 297 297 301 305 307 311 314 312 319 319 320 321 325 322 324 320 321
284 283 283 282 282 282 282 282 282 282 282 283 283 283 284 285 285 285 287 286 286 287 289 291 291 293 295 295 300 303 306 308 313 313 318 319 318 317 322 323 323 322 321
283 283 283 282 282 281 281 281 281 282 282 282 282 282 283 283 284 284 285 285 286 287 288 290 291 292 293 296 300 303 305 307 312 311 314 319 319 317 320 323 323 322 321
283 283 283 281 281 281 281 281 281 281 281 281 281 281 282 282 283 284 285 285 286 286 287 289 289 291 293 295 297 301 304 305 309 311 313 315 319 318 318 319 319 324 322
284 283 282 281 280 280 280 280 280 280 280 280 281 281 282 282 283 284 285 285 285 286 287 288 289 290 292 293 299 301 302 305 309 311 314 313 316 317 317 317 320 322 322
284 283 282 282 281 280 279 279 279 280 280 281 281 281 282 282 283 284 284 285 286 286 287 289 290 291 293 294 295 299 302 304 306 310 313 312 313 318 318 317 317 320 321
284 284 284 283 281 279 279 279 280 280 281 281 282 282 283 283 283 284 285 286 287 287 288 289 290 292 293 294 296 299 301 302 303 307 311 312 312 313 317 317 317 320 319
284 284 284 283 281 280 279 280 280 281 281 282 282 283 283 283 284 284 285 286 287 288 289 289 291 291 293 294 296 298 300 301 302 305 310 312 312 312 313 314 316 316 319
285 285 284 281 281 280 280 281 281 281 281 282 282 282 283 283 284 284 285 286 287 287 288 289 291 291 292 293 294 296 299 300 302 305 308 309 311 313 313 313 313 315 317
285 285 283 281 281 282 281 281 281 282 282 282 282 282 283 283 284 284 285 286 286 287 288 288 289 291 291 292 293 295 296 300 301 303 307 305 306 309 309 310 310 311 315
284 284 282 282 282 283 282 281 281 282 282 283 283 283 284 284 284 285 285 285 286 287 288 287 288 289 290 291 293 294 296 299 301 303 304 305 305 306 309 310 311 312 312
283 281 284 283 283 284 284 282 283 283 283 284 284 284 285 285 285 285 286 287 287 288 287 288 289 288 288 290 292 293 295 297 298 301 302 303 305 306 303 306 311 313 314
Wind_Speed
29 31 32 32 33 33 34 34 35 36 37 38 38 39 40 40 40 39 41 41 39 40 40 40 41 40 38 42 41 45 46 43 42 52 57 57 53 46 43 38 38 39 36
31 32 32 32 32 32 32 33 33 34 35 35 36 36 37 37 38 39 40 40 41 39 40 39 40 41 39 37 44 42 44 45 44 51 63 71 59 47 43 40 40 39 35
31 31 32 31 30 30 30 29 28 27 26 27 28 28 30 32 32 33 36 40 41 39 38 37 37 38 39 37 37 43 43 43 49 49 69 47 48 47 42 42 40 39 29
31 31 30 28 28 29 27 24 24 24 25 26 28 28 29 29 31 33 34 34 36 35 36 36 35 35 35 36 35 36 42 45 49 68 67 42 45 53 47 42 42 40 31
30 30 28 27 27 27 24 22 24 24 26 27 28 29 30 31 30 31 32 31 30 30 27 26 31 35 34 34 36 37 37 43 51 38 36 55 58 51 47 45 46 42 35
30 30 28 27 28 26 24 23 25 24 24 25 28 30 30 30 29 28 25 23 21 22 19 20 24 25 31 29 31 34 36 37 44 35 43 52 27 34 39 45 50 47 39
31 30 29 30 28 26 26 24 23 23 22 21 27 30 28 26 18 22 17 17 18 21 23 17 19 23 27 23 28 30 32 38 40 36 31 41 44 41 54 52 54 53 43
31 30 30 29 28 26 24 21 21 22 21 19 24 28 21 30 4 16 25 19 19 19 23 25 21 14 19 22 25 28 27 33 32 35 36 39 51 50 46 57 60 55 49
30 31 32 32 30 27 24 22 20 20 24 21 18 15 14 12 35 14 21 20 16 22 18 29 27 21 14 20 23 26 31 30 35 35 35 41 45 54 50 61 63 56 51
31 32 31 30 28 26 24 23 20 21 21 24 21 18 22 29 29 27 22 26 24 20 20 23 30 36 19 20 18 26 28 28 34 39 38 43 41 44 41 59 63 60 57
32 32 30 29 27 26 25 26 24 21 21 22 24 23 22 25 26 31 35 25 28 22 22 22 27 25 22 19 20 20 28 29 32 36 37 41 45 40 43 69 68 65 60
32 30 29 29 27 25 25 25 24 23 22 22 24 25 26 25 27 28 32 33 33 28 22 24 24 21 19 22 15 17 18 26 28 34 37 38 40 39 35 50 71 69 59
30 30 30 28 27 27 27 26 24 23 22 22 23 26 27 28 29 29 32 35 33 29 25 20 20 16 17 20 22 15 18 14 20 32 36 37 40 40 45 59 77 70 65
31 31 30 30 30 28 27 25 23 23 22 22 24 25 26 27 26 27 28 30 33 29 21 21 21 13 14 19 22 13 12 14 23 25 34 33 35 34 37 46 73 64 61
32 32 32 31 29 28 27 25 24 23 23 23 23 24 24 25 24 24 25 25 23 28 26 19 19 16 24 25 19 20 20 8 11 28 18 24 25 20 25 58 63 62 60
32 32 31 31 30 28 26 24 24 23 24 24 22 22 23 23 23 23 22 24 26 27 30 23 28 24 23 24 20 17 17 15 4 10 4 15 14 15 29 61 61 60 62
31 31 32 31 30 27 26 25 25 25 24 24 23 22 23 23 23 21 23 24 24 23 26 26 25 25 24 21 18 12 13 13 3 6 11 11 16 11 14 21 57 61 64
30 31 31 30 27 26 25 25 26 24 24 24 23 22 22 20 20 19 19 21 21 22 22 23 23 21 18 18 21 19 11 17 3 6 12 5 21 20 14 19 21 62 61
30 30 28 27 27 26 26 24 24 24 23 22 21 20 21 20 19 18 18 19 21 20 19 18 20 20 20 18 16 15 11 9 3 3 8 6 10 24 18 15 14 44 72
29 28 27 28 27 25 24 23 21 21 22 22 22 22 21 21 20 20 19 18 18 18 17 16 14 15 15 14 14 15 14 7 6 6 11 5 5 21 20 22 16 27 54
27 28 29 28 26 23 21 21 24 24 23 22 22 20 20 20 20 21 20 19 18 16 15 15 13 12 10 10 12 13 10 7 2 9 11 14 11 9 15 18 18 18 42
27 28 27 26 25 22 22 23 22 24 24 25 23 21 20 21 19 17 17 19 20 20 19 17 12 11 9 9 10 11 6 5 6 5 10 17 15 15 13 13 17 20 25
27 27 26 24 25 23 22 23 23 23 23 23 22 21 20 18 18 18 17 14 16 17 19 19 16 11 11 7 9 9 5 4 5 7 13 17 15 15 14 13 13 17 20
26 26 25 24 24 24 22 23 23 23 22 21 20 19 19 19 18 16 15 15 15 16 16 17 15 13 11 11 7 12 7 4 4 6 12 19 14 16 11 13 15 17 19
25 24 24 25 24 24 21 22 20 20 21 20 19 18 18 19 17 14 15 15 15 16 13 16 18 17 16 12 8 9 8 3 9 7 10 17 18 17 12 12 14 15 22
24 24 25 24 24 23 22 22 21 20 22 21 19 17 16 17 17 14 13 12 14 14 12 12 11 14 17 17 10 8 9 3 3 9 13 25 22 17 16 22 22 22 23
Wind_Direction
336 333 329 326 322 320 318 314 311 309 306 303 299 298 296 292 290 289 288 286 281 276 273 269 267 266 260 253 251 246 244 244 242 231 223 218 215 217 220 219 214 212 217
334 330 328 326 324 320 318 316 314 311 308 306 304 302 299 296 293 288 286 284 282 278 275 273 270 266 264 259 251 251 244 244 241 234 225 226 213 216 219 216 212 214 218
333 330 328 325 322 321 320 316 313 311 308 307 302 301 300 297 293 290 287 282 282 280 273 271 271 270 264 262 258 249 249 240 243 239 227 214 215 219 218 216 215 215 217
332 329 326 324 323 324 320 315 313 311 309 307 305 302 300 296 293 291 289 287 281 279 277 268 268 270 269 260 260 258 250 245 241 236 229 223 227 222 214 218 218 213 214
331 328 326 324 323 320 316 313 312 311 310 307 305 303 300 296 294 292 289 285 279 277 279 275 270 271 269 263 257 259 258 252 252 267 235 223 222 216 219 213 219 214 213
330 328 326 323 322 319 316 312 311 310 307 307 306 303 301 296 294 291 289 287 283 276 276 283 274 272 271 268 263 259 256 251 262 263 241 256 225 214 230 228 220 217 211
329 329 326 322 320 317 314 313 311 310 308 309 309 309 303 310 294 289 283 284 281 281 268 290 276 272 269 273 267 256 251 242 251 251 239 239 228 240 259 250 220 211 207
329 328 324 320 318 315 312 310 309 309 306 309 309 312 315 313 238 294 294 292 285 293 292 277 277 283 270 268 266 262 253 246 243 241 240 233 235 244 253 222 215 209 209
326 324 320 318 316 314 309 310 309 307 305 305 304 295 312 293 313 314 298 303 298 307 301 290 278 281 297 275 269 267 255 247 242 241 241 236 232 234 227 209 213 212 207
324 321 319 317 315 313 309 307 306 303 302 301 298 285 275 282 294 302 297 294 306 297 297 306 301 267 306 305 298 267 272 261 253 240 244 237 229 230 229 211 214 211 205
320 320 320 319 317 313 309 307 305 300 296 293 290 290 283 281 282 282 294 299 299 301 299 302 302 292 293 317 308 267 264 261 248 237 242 232 230 236 245 212 214 212 204
319 320 320 318 314 310 307 305 302 297 294 289 288 287 284 281 283 286 288 294 297 302 303 300 304 292 263 318 312 290 267 251 246 237 237 229 230 233 248 231 214 210 201
318 319 318 315 312 309 306 304 299 295 293 290 286 283 280 280 281 282 285 290 295 300 303 301 296 282 283 305 337 333 259 271 259 240 238 236 233 234 247 227 204 197 199
317 317 315 312 311 307 305 302 297 294 292 289 287 285 283 284 281 280 280 285 294 298 302 301 308 269 292 304 343 338 351 253 270 268 225 229 230 240 243 183 190 192 195
316 315 315 312 309 307 305 300 297 294 292 291 289 286 282 282 281 283 282 278 283 297 299 298 310 299 300 317 332 336 351 323 237 249 237 229 230 230 218 184 195 188 193
318 316 314 312 310 307 304 300 297 295 292 291 290 288 287 283 279 283 277 278 277 277 286 287 292 303 310 314 328 321 343 329 20 231 254 229 216 233 232 209 202 194 191
317 316 316 313 310 307 304 301 297 296 294 291 289 288 285 282 282 282 279 279 278 277 279 286 291 293 301 307 324 336 358 340 294 265 304 206 200 231 215 174 186 193 192
320 318 316 313 308 306 305 301 298 296 294 293 293 290 287 286 281 283 283 279 277 280 280 287 295 301 299 299 311 338 350 321 311 191 265 155 181 202 245 221 222 193 195
323 320 317 314 313 309 305 301 298 297 295 293 293 292 291 289 283 282 283 284 285 285 283 285 292 294 298 304 287 321 344 342 326 153 233 88 129 157 159 163 166 198 187
326 323 321 318 315 308 305 304 303 301 298 297 296 295 291 285 281 281 284 284 285 287 290 290 290 295 298 303 307 311 7 5 345 189 171 167 139 143 155 155 160 164 170
327 326 324 321 317 310 308 307 307 304 301 299 297 293 290 285 281 277 275 276 279 283 289 295 301 301 301 314 327 329 342 7 332 113 137 158 141 115 137 142 137 177 191
329 327 324 322 318 313 309 308 306 305 301 298 296 293 288 288 285 281 272 273 274 277 276 279 288 293 311 310 327 332 313 342 286 73 133 142 142 137 134 142 146 141 153
328 327 325 321 318 316 315 311 308 305 301 296 292 291 288 283 279 277 278 280 261 263 261 268 279 271 280 301 308 299 337 308 341 128 113 112 130 151 166 168 180 182 178
328 327 325 322 316 320 318 314 312 306 300 296 292 290 286 284 280 279 275 272 271 269 265 261 268 266 263 272 281 277 321 302 184 194 134 107 121 142 167 184 190 185 182
328 326 324 321 320 323 325 316 316 317 308 302 298 293 287 284 284 279 271 266 266 269 272 256 252 251 254 253 257 295 288 202 168 157 136 128 123 126 147 162 173 179 179
326 323 325 325 326 330 334 321 317 316 309 305 303 296 289 283 282 276 273 264 261 267 268 260 258 260 250 243 236 248 261 279 187 150 160 139 132 126 99 119 133 142 156